| time (UTC) | temp F | wind direction | speed MPH | gust MPH | rain 1hr in | rain 24hr in | rain mn in | humidity % | barometer mb |
| 20260904145002 | 91 | 248 | 2.0 | 6.0 | 0.00 | 0.00 | 0.00 | 64 | 1017.0 |
| 20260904143453 | 90 | 251 | 2.0 | 7.0 | 0.00 | 0.00 | 0.00 | 64 | 1016.9 |
| 20260904134027 | 86 | 257 | 1.0 | 4.0 | 0.00 | 0.00 | 0.00 | 69 | 1016.9 |
| 20260904133556 | 85 | 0 | 1.0 | 5.0 | 0.00 | 0.00 | 0.00 | 69 | 1017.0 |
| 20260904132045 | 84 | 269 | 0.0 | 6.0 | 0.00 | 0.00 | 0.00 | 72 | 1016.9 |
| 20260904131945 | 84 | 271 | 1.0 | 6.0 | 0.00 | 0.00 | 0.00 | 73 | 1016.9 |
| 20260904125827 | 81 | 237 | 1.0 | 3.0 | 0.00 | 0.00 | 0.00 | 77 | 1016.8 |
| 20260904124852 | 80 | 229 | 1.0 | 3.0 | 0.00 | 0.00 | 0.00 | 77 | 1016.8 |
| 20260904124752 | 80 | 229 | 1.0 | 3.0 | 0.00 | 0.00 | 0.00 | 77 | 1016.8 |
| 20260904124144 | 80 | 225 | 0.0 | 3.0 | 0.00 | 0.00 | 0.00 | 79 | 1016.7 |
| 20260904123525 | 78 | 224 | 1.0 | 3.0 | 0.00 | 0.00 | 0.00 | 79 | 1016.6 |
| 20260904121959 | 78 | 0 | 1.0 | 4.0 | 0.00 | 0.00 | 0.00 | 80 | 1016.5 |
| 20260904121240 | 77 | 0 | 1.0 | 4.0 | 0.00 | 0.00 | 0.00 | 80 | 1016.5 |
| 20260904114233 | 76 | 0 | 0.0 | 2.0 | 0.00 | 0.00 | 0.00 | 81 | 1016.1 |
| 20260904113720 | 76 | 0 | 0.0 | 2.0 | 0.00 | 0.00 | 0.00 | 81 | 1016.1 |
| 20260904113425 | 76 | 228 | 0.0 | 2.0 | 0.00 | 0.00 | 0.00 | 81 | 1015.9 |
| 20260904112359 | 76 | 0 | 0.0 | 3.0 | 0.00 | 0.00 | 0.00 | 81 | 1015.8 |
| 20260904111020 | 76 | 238 | 1.0 | 3.0 | 0.00 | 0.00 | 0.00 | 80 | 1015.6 |
| 20260904105458 | 77 | 219 | 0.0 | 3.0 | 0.00 | 0.00 | 0.00 | 80 | 1015.5 |
| 20260904104921 | 77 | 217 | 0.0 | 3.0 | 0.00 | 0.00 | 0.00 | 79 | 1015.4 |
| 20260904104820 | 77 | 217 | 0.0 | 3.0 | 0.00 | 0.00 | 0.00 | 79 | 1015.4 |
| 20260904104640 | 77 | 217 | 0.0 | 3.0 | 0.00 | 0.00 | 0.00 | 79 | 1015.4 |
| 20260904104221 | 77 | 221 | 1.0 | 4.0 | 0.00 | 0.00 | 0.00 | 79 | 1015.4 |
| 20260904104048 | 77 | 221 | 1.0 | 4.0 | 0.00 | 0.00 | 0.00 | 79 | 1015.4 |
| 20260904103657 | 77 | 211 | 0.0 | 4.0 | 0.00 | 0.00 | 0.00 | 79 | 1015.4 |
| 20260904103002 | 77 | 209 | 1.0 | 4.0 | 0.00 | 0.00 | 0.00 | 79 | 1015.4 |
| 20260904101816 | 77 | 211 | 1.0 | 4.0 | 0.00 | 0.00 | 0.00 | 80 | 1015.5 |
| 20260904101402 | 77 | 205 | 1.0 | 4.0 | 0.00 | 0.00 | 0.00 | 80 | 1015.5 |
| 20260904100941 | 77 | 199 | 1.0 | 4.0 | 0.00 | 0.00 | 0.00 | 80 | 1015.5 |
| 20260904095404 | 77 | 204 | 1.0 | 3.0 | 0.00 | 0.00 | 0.00 | 80 | 1015.4 |
| 20260904094449 | 77 | 209 | 0.0 | 3.0 | 0.00 | 0.00 | 0.00 | 80 | 1015.5 |
| 20260904093850 | 77 | 208 | 1.0 | 3.0 | 0.00 | 0.00 | 0.00 | 80 | 1015.6 |
| 20260904093132 | 77 | 207 | 1.0 | 3.0 | 0.00 | 0.00 | 0.00 | 80 | 1015.6 |
| 20260904092837 | 77 | 197 | 0.0 | 3.0 | 0.00 | 0.00 | 0.00 | 80 | 1015.6 |
| 20260904092731 | 77 | 197 | 0.0 | 3.0 | 0.00 | 0.00 | 0.00 | 80 | 1015.6 |
| 20260904091538 | 77 | 192 | 0.0 | 3.0 | 0.00 | 0.00 | 0.00 | 81 | 1015.5 |
| 20260904090333 | 77 | 194 | 0.0 | 4.0 | 0.00 | 0.00 | 0.00 | 81 | 1015.5 |
| 20260904085018 | 76 | 175 | 1.0 | 3.0 | 0.00 | 0.00 | 0.00 | 83 | 1015.5 |
| 20260904083826 | 76 | 173 | 1.0 | 3.0 | 0.00 | 0.00 | 0.00 | 83 | 1015.5 |
| 20260904083522 | 76 | 0 | 0.0 | 3.0 | 0.00 | 0.00 | 0.00 | 84 | 1015.5 |
| 20260904082938 | 76 | 172 | 1.0 | 3.0 | 0.00 | 0.00 | 0.00 | 84 | 1015.4 |
| 20260904082220 | 76 | 172 | 0.0 | 1.0 | 0.00 | 0.00 | 0.00 | 84 | 1015.5 |
| 20260904081931 | 76 | 172 | 0.0 | 1.0 | 0.00 | 0.00 | 0.00 | 84 | 1015.4 |
| 20260904081240 | 77 | 0 | 0.0 | 1.0 | 0.00 | 0.00 | 0.00 | 84 | 1015.5 |
| 20260904080321 | 77 | 0 | 0.0 | 0.0 | 0.00 | 0.00 | 0.00 | 83 | 1015.5 |
| 20260904080223 | 77 | 0 | 0.0 | 0.0 | 0.00 | 0.00 | 0.00 | 83 | 1015.5 |
| 20260904080149 | 77 | 0 | 0.0 | 0.0 | 0.00 | 0.00 | 0.00 | 83 | 1015.5 |
| 20260904074852 | 77 | 0 | 0.0 | 2.0 | 0.00 | 0.00 | 0.00 | 83 | 1015.7 |
| 20260904074327 | 77 | 0 | 0.0 | 2.0 | 0.00 | 0.00 | 0.00 | 83 | 1015.6 |
| 20260904073941 | 77 | 171 | 0.0 | 2.0 | 0.00 | 0.00 | 0.00 | 84 | 1015.6 |
| 20260904072245 | 77 | 172 | 0.0 | 2.0 | 0.00 | 0.00 | 0.00 | 84 | 1015.7 |
| 20260904071954 | 77 | 0 | 0.0 | 1.0 | 0.00 | 0.00 | 0.00 | 84 | 1015.9 |
| 20260904071203 | 77 | 172 | 0.0 | 1.0 | 0.00 | 0.00 | 0.00 | 84 | 1015.9 |
| 20260904071048 | 77 | 172 | 0.0 | 1.0 | 0.00 | 0.00 | 0.00 | 84 | 1015.9 |
| 20260904070942 | 77 | 0 | 0.0 | 0.0 | 0.00 | 0.00 | 0.00 | 83 | 1015.9 |
| 20260904070256 | 77 | 0 | 0.0 | 0.0 | 0.00 | 0.00 | 0.00 | 83 | 1015.9 |
| 20260904065318 | 77 | 0 | 0.0 | 1.0 | 0.00 | 0.00 | 0.00 | 83 | 1016.0 |
| 20260904062119 | 78 | 0 | 0.0 | 0.0 | 0.00 | 0.00 | 0.00 | 82 | 1016.1 |
| 20260904060518 | 78 | 0 | 0.0 | 0.0 | 0.00 | 0.00 | 0.00 | 82 | 1016.2 |
| 20260904055718 | 78 | 0 | 0.0 | 0.0 | 0.00 | 0.00 | 0.00 | 81 | 1016.3 |
| 20260904052335 | 79 | 0 | 0.0 | 1.0 | 0.00 | 0.00 | 0.00 | 80 | 1016.3 |
| 20260904052033 | 79 | 0 | 0.0 | 1.0 | 0.00 | 0.00 | 0.00 | 80 | 1016.3 |
| 20260904051724 | 79 | 0 | 0.0 | 1.0 | 0.00 | 0.00 | 0.00 | 79 | 1016.3 |
| 20260904051040 | 79 | 0 | 0.0 | 1.0 | 0.00 | 0.00 | 0.00 | 79 | 1016.3 |
| 20260904050935 | 79 | 0 | 0.0 | 2.0 | 0.00 | 0.00 | 0.00 | 79 | 1016.3 |
| 20260904050129 | 79 | 0 | 0.0 | 2.0 | 0.00 | 0.00 | 0.00 | 79 | 1016.2 |
| 20260904045849 | 79 | 0 | 0.0 | 2.0 | 0.00 | 0.00 | 0.00 | 79 | 1016.3 |
| 20260904044119 | 79 | 173 | 0.0 | 2.0 | 0.00 | 0.00 | 0.00 | 79 | 1016.2 |
| 20260904043955 | 79 | 173 | 0.0 | 3.0 | 0.00 | 0.00 | 0.00 | 79 | 1016.1 |
| 20260904043103 | 79 | 0 | 0.0 | 3.0 | 0.00 | 0.00 | 0.00 | 79 | 1016.2 |
| 20260904042643 | 79 | 0 | 0.0 | 3.0 | 0.00 | 0.00 | 0.00 | 79 | 1016.1 |
| 20260904042149 | 80 | 170 | 0.0 | 4.0 | 0.00 | 0.00 | 0.00 | 79 | 1016.0 |
| 20260904041356 | 80 | 0 | 0.0 | 2.0 | 0.00 | 0.00 | 0.00 | 79 | 1016.1 |
| 20260904040254 | 80 | 169 | 0.0 | 2.0 | 0.00 | 0.00 | 0.00 | 79 | 1016.0 |
| 20260904034222 | 80 | 170 | 0.0 | 1.0 | 0.00 | 0.00 | 0.00 | 79 | 1015.8 |
| 20260904031731 | 81 | 170 | 1.0 | 2.0 | 0.00 | 0.00 | 0.00 | 78 | 1016.0 |
| 20260904031022 | 81 | 169 | 1.0 | 3.0 | 0.00 | 0.00 | 0.00 | 78 | 1016.1 |
| 20260904030918 | 81 | 169 | 1.0 | 3.0 | 0.00 | 0.00 | 0.00 | 78 | 1016.1 |
| 20260904025521 | 82 | 168 | 0.0 | 2.0 | 0.00 | 0.00 | 0.00 | 77 | 1016.2 |
| 20260904023917 | 82 | 0 | 0.0 | 2.0 | 0.00 | 0.00 | 0.00 | 76 | 1016.2 |
| 20260904023123 | 82 | 0 | 0.0 | 2.0 | 0.00 | 0.00 | 0.00 | 76 | 1016.2 |
| 20260904022356 | 82 | 168 | 0.0 | 2.0 | 0.00 | 0.00 | 0.00 | 76 | 1016.1 |
| 20260904021914 | 82 | 169 | 0.0 | 4.0 | 0.00 | 0.00 | 0.00 | 76 | 1016.1 |
| 20260904021431 | 82 | 0 | 0.0 | 4.0 | 0.00 | 0.00 | 0.00 | 75 | 1016.1 |
| 20260904020954 | 83 | 170 | 1.0 | 3.0 | 0.00 | 0.00 | 0.00 | 75 | 1016.1 |
| 20260904020357 | 83 | 178 | 0.0 | 3.0 | 0.00 | 0.00 | 0.00 | 74 | 1016.1 |
| 20260904015319 | 84 | 180 | 0.0 | 3.0 | 0.00 | 0.00 | 0.00 | 73 | 1016.1 |
| 20260904014827 | 84 | 206 | 0.0 | 2.0 | 0.00 | 0.00 | 0.00 | 72 | 1016.1 |
| 20260904013737 | 84 | 0 | 0.0 | 3.0 | 0.00 | 0.00 | 0.00 | 71 | 1016.1 |
| 20260904013301 | 84 | 210 | 0.0 | 3.0 | 0.00 | 0.00 | 0.00 | 71 | 1016.1 |
| 20260904012956 | 84 | 0 | 0.0 | 1.0 | 0.00 | 0.00 | 0.00 | 71 | 1016.1 |
| 20260904012320 | 85 | 0 | 0.0 | 1.0 | 0.00 | 0.00 | 0.00 | 70 | 1016.0 |
| 20260904011945 | 85 | 0 | 0.0 | 1.0 | 0.00 | 0.00 | 0.00 | 70 | 1016.0 |
| 20260904011426 | 85 | 0 | 0.0 | 2.0 | 0.00 | 0.00 | 0.00 | 70 | 1015.9 |
| 20260904010719 | 85 | 0 | 0.0 | 2.0 | 0.00 | 0.00 | 0.00 | 70 | 1015.9 |
| 20260904010323 | 86 | 211 | 0.0 | 2.0 | 0.00 | 0.00 | 0.00 | 69 | 1015.9 |
| 20260904005928 | 86 | 0 | 0.0 | 1.0 | 0.00 | 0.00 | 0.00 | 68 | 1015.9 |
| 20260904005731 | 86 | 0 | 0.0 | 1.0 | 0.00 | 0.00 | 0.00 | 68 | 1015.9 |
| 20260904004637 | 86 | 0 | 0.0 | 2.0 | 0.00 | 0.00 | 0.00 | 68 | 1015.7 |
| 20260904004230 | 87 | 0 | 0.0 | 2.0 | 0.00 | 0.00 | 0.00 | 67 | 1015.6 |
| 20260904003424 | 87 | 0 | 0.0 | 2.0 | 0.00 | 0.00 | 0.00 | 66 | 1015.7 |
| 20260904002526 | 88 | 0 | 0.0 | 3.0 | 0.00 | 0.00 | 0.00 | 66 | 1015.5 |
| 20260904001941 | 88 | 211 | 0.0 | 3.0 | 0.00 | 0.00 | 0.00 | 66 | 1015.4 |
| 20260904000535 | 89 | 0 | 0.0 | 3.0 | 0.00 | 0.00 | 0.00 | 66 | 1015.5 |
| 20260903235928 | 90 | 0 | 0.0 | 2.0 | 0.00 | 0.00 | 0.00 | 65 | 1015.4 |
| 20260903235028 | 90 | 0 | 0.0 | 2.0 | 0.00 | 0.00 | 0.00 | 64 | 1015.4 |
| 20260903233828 | 90 | 0 | 0.0 | 3.0 | 0.00 | 0.00 | 0.00 | 63 | 1015.3 |
| 20260903233756 | 90 | 0 | 0.0 | 3.0 | 0.00 | 0.00 | 0.00 | 63 | 1015.3 |
| 20260903233318 | 91 | 0 | 0.0 | 3.0 | 0.00 | 0.00 | 0.00 | 62 | 1015.4 |
| 20260903233244 | 91 | 0 | 0.0 | 3.0 | 0.00 | 0.00 | 0.00 | 62 | 1015.4 |
| 20260903232527 | 91 | 0 | 1.0 | 3.0 | 0.00 | 0.00 | 0.00 | 61 | 1015.3 |
| 20260903232347 | 91 | 0 | 0.0 | 2.0 | 0.00 | 0.00 | 0.00 | 61 | 1015.3 |
| 20260903231949 | 92 | 256 | 0.0 | 3.0 | 0.00 | 0.00 | 0.00 | 60 | 1015.3 |
| 20260903231156 | 92 | 0 | 0.0 | 3.0 | 0.00 | 0.00 | 0.00 | 60 | 1015.3 |
| 20260903230924 | 92 | 0 | 0.0 | 3.0 | 0.00 | 0.00 | 0.00 | 60 | 1015.2 |
| 20260903230043 | 92 | 0 | 1.0 | 4.0 | 0.00 | 0.00 | 0.00 | 64 | 1015.2 |
| 20260903225854 | 92 | 0 | 1.0 | 4.0 | 0.00 | 0.00 | 0.00 | 64 | 1015.2 |
| 20260903225459 | 93 | 252 | 0.0 | 4.0 | 0.00 | 0.00 | 0.00 | 58 | 1015.2 |
| 20260903224637 | 93 | 0 | 1.0 | 4.0 | 0.00 | 0.00 | 0.00 | 58 | 1015.3 |
| 20260903223038 | 94 | 0 | 2.0 | 8.0 | 0.00 | 0.00 | 0.00 | 57 | 1015.0 |
| 20260903215352 | 95 | 246 | 2.0 | 5.0 | 0.00 | 0.00 | 0.00 | 59 | 1014.8 |
| 20260903213930 | 95 | 224 | 3.0 | 8.0 | 0.00 | 0.00 | 0.00 | 53 | 1014.9 |
| 20260903212554 | 96 | 236 | 4.0 | 9.0 | 0.00 | 0.00 | 0.00 | 51 | 1014.9 |
| 20260903212031 | 96 | 242 | 3.0 | 12.0 | 0.00 | 0.00 | 0.00 | 51 | 1014.9 |
| 20260903212018 | 97 | 242 | 3.0 | 12.0 | 0.00 | 0.00 | 0.00 | 55 | 1014.9 |
| 20260903205833 | 98 | 214 | 2.0 | 7.0 | 0.00 | 0.00 | 0.00 | 49 | 1015.1 |
| 20260903204458 | 99 | 250 | 2.0 | 7.0 | 0.00 | 0.00 | 0.00 | 53 | 1015.1 |
| 20260903203911 | 99 | 236 | 3.0 | 7.0 | 0.00 | 0.00 | 0.00 | 48 | 1015.2 |
| 20260903203435 | 99 | 262 | 3.0 | 7.0 | 0.00 | 0.00 | 0.00 | 48 | 1015.2 |
| 20260903202628 | 98 | 248 | 2.0 | 8.0 | 0.00 | 0.00 | 0.00 | 49 | 1015.3 |
| 20260903202500 | 98 | 236 | 2.0 | 8.0 | 0.00 | 0.00 | 0.00 | 49 | 1015.3 |
| 20260903201944 | 98 | 244 | 2.0 | 6.0 | 0.00 | 0.00 | 0.00 | 49 | 1015.3 |
| 20260903201424 | 98 | 262 | 2.0 | 6.0 | 0.00 | 0.00 | 0.00 | 50 | 1015.4 |
| 20260903200924 | 99 | 286 | 2.0 | 7.0 | 0.00 | 0.00 | 0.00 | 53 | 1015.5 |
| 20260903192720 | 99 | 281 | 2.0 | 7.0 | 0.00 | 0.00 | 0.00 | 46 | 1016.0 |
| 20260903192330 | 99 | 295 | 2.0 | 7.0 | 0.00 | 0.00 | 0.00 | 50 | 1016.1 |
| 20260903191722 | 98 | 250 | 2.0 | 9.0 | 0.00 | 0.00 | 0.00 | 50 | 1016.2 |
| 20260903191219 | 98 | 298 | 3.0 | 9.0 | 0.00 | 0.00 | 0.00 | 49 | 1016.2 |
| 20260903190622 | 98 | 282 | 1.0 | 7.0 | 0.00 | 0.00 | 0.00 | 49 | 1016.3 |
| 20260903190521 | 98 | 244 | 2.0 | 7.0 | 0.00 | 0.00 | 0.00 | 53 | 1016.3 |
| 20260903185902 | 98 | 248 | 3.0 | 7.0 | 0.00 | 0.00 | 0.00 | 49 | 1016.3 |
| 20260903185502 | 98 | 263 | 2.0 | 7.0 | 0.00 | 0.00 | 0.00 | 50 | 1016.4 |
| 20260903183600 | 97 | 252 | 2.0 | 9.0 | 0.00 | 0.00 | 0.00 | 51 | 1016.3 |
| 20260903182526 | 97 | 215 | 3.0 | 11.0 | 0.00 | 0.00 | 0.00 | 55 | 1016.4 |
| 20260903175858 | 96 | 290 | 3.0 | 9.0 | 0.00 | 0.00 | 0.00 | 52 | 1016.5 |
| 20260903174951 | 96 | 262 | 2.0 | 12.0 | 0.00 | 0.00 | 0.00 | 54 | 1016.6 |
| 20260903174319 | 96 | 257 | 2.0 | 8.0 | 0.00 | 0.00 | 0.00 | 56 | 1016.6 |
| 20260903173839 | 95 | 286 | 3.0 | 8.0 | 0.00 | 0.00 | 0.00 | 57 | 1016.7 |
| 20260903173748 | 95 | 286 | 3.0 | 8.0 | 0.00 | 0.00 | 0.00 | 57 | 1016.7 |
| 20260903173706 | 95 | 286 | 3.0 | 8.0 | 0.00 | 0.00 | 0.00 | 57 | 1016.7 |
| 20260903172926 | 95 | 213 | 2.0 | 7.0 | 0.00 | 0.00 | 0.00 | 57 | 1016.8 |
| 20260903172226 | 95 | 237 | 2.0 | 7.0 | 0.00 | 0.00 | 0.00 | 57 | 1016.8 |
| 20260903171419 | 95 | 266 | 3.0 | 8.0 | 0.00 | 0.00 | 0.00 | 58 | 1017.0 |
| 20260903165941 | 95 | 242 | 2.0 | 7.0 | 0.00 | 0.00 | 0.00 | 58 | 1017.3 |
| 20260903165247 | 94 | 248 | 1.0 | 7.0 | 0.00 | 0.00 | 0.00 | 59 | 1017.3 |
| 20260903163234 | 94 | 247 | 2.0 | 6.0 | 0.00 | 0.00 | 0.00 | 61 | 1017.5 |
| 20260903161030 | 93 | 208 | 2.0 | 7.0 | 0.00 | 0.00 | 0.00 | 64 | 1017.6 |
| 20260903154326 | 92 | 257 | 1.0 | 8.0 | 0.00 | 0.00 | 0.00 | 62 | 1017.6 |
| 20260903153035 | 91 | 268 | 3.0 | 8.0 | 0.00 | 0.00 | 0.00 | 62 | 1017.5 |
| 20260903151413 | 91 | 279 | 1.0 | 6.0 | 0.00 | 0.00 | 0.00 | 63 | 1017.4 |
| 20260903150419 | 90 | 241 | 2.0 | 6.0 | 0.00 | 0.00 | 0.00 | 64 | 1017.4 |